• In Belarus
  • List of Countries
  • For 7 days
  • Water Temperature
  • Satellite Maps
  • Weather Map
  • Weather Widgets
  • user-avatar
    Login

    Hourly Weather San Luis

    Today, 25 February, Sunday

    Time Temperature Precipitation Wind Pressure Humidity
    00:00 +18°C° 1.4 mm 2 mps 701 mmHg 78%
    01:00 +18°C° 1.4 mm 2 mps 701 mmHg 79%
    02:00 +18°C° 1.4 mm 2 mps 700 mmHg 81%
    03:00 +18°C° 1.2 mm 2 mps 700 mmHg 81%
    04:00 +18°C° 1.2 mm 2 mps 700 mmHg 82%
    05:00 +18°C° 1.2 mm 3 mps 700 mmHg 82%
    06:00 +19°C° 0.5 mm 3 mps 701 mmHg 76%
    07:00 +20°C° 0.5 mm 4 mps 701 mmHg 71%
    08:00 +21°C° 0.5 mm 5 mps 701 mmHg 65%
    09:00 +23°C° 0.3 mm 4 mps 701 mmHg 57%
    10:00 +26°C° 0.3 mm 4 mps 702 mmHg 50%
    11:00 +28°C° 0.3 mm 4 mps 702 mmHg 42%
    12:00 +28°C° 0.5 mm 3 mps 701 mmHg 42%
    13:00 +28°C° 0.5 mm 3 mps 701 mmHg 41%
    14:00 +28°C° 0.5 mm 2 mps 700 mmHg 41%
    15:00 +29°C° 0.5 mm 2 mps 700 mmHg 40%
    16:00 +29°C° 0.5 mm 2 mps 700 mmHg 39%
    17:00 +29°C° 0.5 mm 1 mps 699 mmHg 38%
    18:00 +27°C° 0.3 mm 2 mps 699 mmHg 43%
    19:00 +25°C° 0.3 mm 2 mps 699 mmHg 49%
    20:00 +23°C° 0.3 mm 2 mps 699 mmHg 55%
    21:00 +22°C° 0.1 mm 3 mps 699 mmHg 55%
    22:00 +22°C° 0.1 mm 3 mps 699 mmHg 56%
    23:00 +21°C° 0.1 mm 3 mps 700 mmHg 56%

    Tomorrow, 26 February, Monday

    Time Temperature Precipitation Wind Pressure Humidity
    00:00 +21°C° 0.1 mm 4 mps 700 mmHg 57%
    01:00 +21°C° 0.1 mm 4 mps 699 mmHg 58%
    02:00 +21°C° 0.1 mm 4 mps 699 mmHg 60%
    03:00 +21°C° 0 mm 4 mps 699 mmHg 58%
    04:00 +21°C° 0 mm 4 mps 699 mmHg 57%
    05:00 +21°C° 0 mm 4 mps 698 mmHg 56%
    06:00 +22°C° 0 mm 5 mps 699 mmHg 52%
    07:00 +23°C° 0 mm 5 mps 699 mmHg 49%
    08:00 +26°C° 0 mm 5 mps 699 mmHg 45%
    09:00 +27°C° 0 mm 5 mps 699 mmHg 40%
    10:00 +29°C° 0 mm 4 mps 699 mmHg 36%
    11:00 +31°C° 0 mm 3 mps 700 mmHg 32%
    12:00 +31°C° 0 mm 3 mps 699 mmHg 31%
    13:00 +33°C° 0 mm 3 mps 698 mmHg 29%
    14:00 +33°C° 0 mm 3 mps 698 mmHg 27%
    15:00 +33°C° 0 mm 3 mps 697 mmHg 27%
    16:00 +32°C° 0 mm 2 mps 697 mmHg 27%
    17:00 +32°C° 0 mm 2 mps 696 mmHg 27%
    18:00 +30°C° 0 mm 3 mps 696 mmHg 32%
    19:00 +28°C° 0 mm 3 mps 696 mmHg 36%
    20:00 +26°C° 0 mm 4 mps 696 mmHg 41%
    21:00 +26°C° 0.1 mm 4 mps 696 mmHg 42%
    22:00 +25°C° 0.1 mm 4 mps 696 mmHg 44%
    23:00 +25°C° 0.1 mm 4 mps 697 mmHg 45%

    Day after tomorrow, 27 February, Tuesday

    Time Temperature Precipitation Wind Pressure Humidity
    00:00 +23°C° 0.1 mm 4 mps 696 mmHg 46%
    01:00 +23°C° 0.1 mm 4 mps 696 mmHg 47%
    02:00 +22°C° 0.1 mm 4 mps 696 mmHg 48%
    03:00 +22°C° 0.1 mm 4 mps 696 mmHg 49%
    04:00 +22°C° 0.1 mm 4 mps 696 mmHg 51%
    05:00 +22°C° 0.1 mm 4 mps 696 mmHg 52%
    06:00 +23°C° 0 mm 4 mps 697 mmHg 52%
    07:00 +25°C° 0 mm 4 mps 697 mmHg 51%
    08:00 +26°C° 0 mm 5 mps 698 mmHg 50%
    09:00 +27°C° 0.1 mm 4 mps 698 mmHg 46%
    10:00 +29°C° 0.1 mm 4 mps 699 mmHg 41%
    11:00 +30°C° 0.1 mm 4 mps 699 mmHg 37%
    12:00 +30°C° 0 mm 4 mps 699 mmHg 37%
    13:00 +30°C° 0 mm 4 mps 699 mmHg 37%
    14:00 +30°C° 0 mm 4 mps 698 mmHg 37%
    15:00 +29°C° 1.2 mm 4 mps 698 mmHg 43%
    16:00 +28°C° 1.2 mm 5 mps 697 mmHg 49%
    17:00 +26°C° 1.2 mm 6 mps 697 mmHg 55%
    18:00 +24°C° 3.2 mm 7 mps 697 mmHg 62%
    19:00 +22°C° 3.2 mm 8 mps 698 mmHg 69%
    20:00 +21°C° 3.2 mm 8 mps 698 mmHg 75%
    21:00 +21°C° 1.2 mm 7 mps 698 mmHg 74%
    22:00 +21°C° 1.2 mm 5 mps 699 mmHg 72%
    23:00 +21°C° 1.2 mm 4 mps 699 mmHg 71%

    28 February, Wednesday

    Time Temperature Precipitation Wind Pressure Humidity
    00:00 +21°C° 0.6 mm 3 mps 699 mmHg 73%
    01:00 +21°C° 0.6 mm 2 mps 699 mmHg 75%
    02:00 +21°C° 0.6 mm 1 mps 699 mmHg 77%
    03:00 +21°C° 0.7 mm 1 mps 699 mmHg 79%
    04:00 +20°C° 0.7 mm 1 mps 699 mmHg 81%
    05:00 +20°C° 0.7 mm 1 mps 699 mmHg 83%
    06:00 +20°C° 0.2 mm 1 mps 699 mmHg 81%
    07:00 +21°C° 0.2 mm 1 mps 699 mmHg 79%
    08:00 +21°C° 0.2 mm 1 mps 700 mmHg 76%
    09:00 +22°C° 0.2 mm 1 mps 700 mmHg 73%
    10:00 +23°C° 0.2 mm 1 mps 700 mmHg 69%
    11:00 +23°C° 0.2 mm 1 mps 700 mmHg 65%
    12:00 +24°C° 0.4 mm 1 mps 700 mmHg 61%
    13:00 +25°C° 0.4 mm 1 mps 699 mmHg 57%
    14:00 +25°C° 0.4 mm 2 mps 699 mmHg 53%
    15:00 +25°C° 0.1 mm 2 mps 698 mmHg 53%
    16:00 +25°C° 0.1 mm 2 mps 698 mmHg 53%
    17:00 +25°C° 0.1 mm 2 mps 698 mmHg 52%
    18:00 +24°C° 0.1 mm 2 mps 698 mmHg 58%
    19:00 +23°C° 0.1 mm 2 mps 698 mmHg 63%
    20:00 +21°C° 0.1 mm 2 mps 698 mmHg 68%
    21:00 +20°C° 0.5 mm 2 mps 698 mmHg 70%
    22:00 +20°C° 0.5 mm 2 mps 698 mmHg 73%
    23:00 +20°C° 0.5 mm 2 mps 699 mmHg 75%

    1 March, Thursday

    Time Temperature Precipitation Wind Pressure Humidity
    00:00 +20°C° 0.2 mm 2 mps 698 mmHg 74%
    01:00 +20°C° 0.2 mm 2 mps 698 mmHg 74%
    02:00 +20°C° 0.2 mm 2 mps 698 mmHg 73%
    03:00 +19°C° 0.1 mm 2 mps 698 mmHg 74%
    04:00 +19°C° 0.1 mm 2 mps 697 mmHg 75%
    05:00 +19°C° 0.1 mm 2 mps 697 mmHg 76%
    06:00 +20°C° 0 mm 3 mps 698 mmHg 72%
    07:00 +21°C° 0 mm 3 mps 698 mmHg 67%
    08:00 +22°C° 0 mm 3 mps 699 mmHg 63%
    09:00 +25°C° 0 mm 3 mps 699 mmHg 56%
    10:00 +26°C° 0 mm 3 mps 699 mmHg 49%
    11:00 +28°C° 0 mm 3 mps 699 mmHg 43%
    12:00 +28°C° 0.1 mm 3 mps 699 mmHg 41%
    13:00 +29°C° 0.1 mm 3 mps 699 mmHg 40%
    14:00 +29°C° 0.1 mm 3 mps 698 mmHg 38%
    15:00 +29°C° 0 mm 2 mps 698 mmHg 38%
    16:00 +29°C° 0 mm 2 mps 698 mmHg 38%
    17:00 +29°C° 0 mm 1 mps 697 mmHg 38%
    18:00 +27°C° 0.2 mm 2 mps 697 mmHg 44%
    19:00 +26°C° 0.2 mm 2 mps 697 mmHg 49%
    20:00 +24°C° 0.2 mm 2 mps 697 mmHg 54%
    21:00 +23°C° 0.1 mm 2 mps 697 mmHg 56%
    22:00 +22°C° 0.1 mm 3 mps 698 mmHg 57%
    23:00 +22°C° 0.1 mm 3 mps 698 mmHg 58%

    2 March, Friday

    Time Temperature Precipitation Wind Pressure Humidity
    00:00 +21°C° 0.1 mm 4 mps 698 mmHg 61%
    01:00 +21°C° 0.1 mm 4 mps 698 mmHg 64%
    02:00 +21°C° 0.1 mm 4 mps 697 mmHg 66%
    03:00 +21°C° 0 mm 4 mps 697 mmHg 66%
    04:00 +20°C° 0 mm 4 mps 697 mmHg 66%
    05:00 +20°C° 0 mm 4 mps 697 mmHg 67%
    06:00 +21°C° 0 mm 4 mps 698 mmHg 63%
    07:00 +24°C° 0 mm 3 mps 698 mmHg 59%
    08:00 +25°C° 0 mm 3 mps 699 mmHg 55%
    09:00 +27°C° 0 mm 3 mps 699 mmHg 48%
    10:00 +29°C° 0 mm 4 mps 699 mmHg 41%
    11:00 +30°C° 0 mm 4 mps 699 mmHg 35%
    12:00 +32°C° 0 mm 4 mps 699 mmHg 32%
    13:00 +33°C° 0 mm 3 mps 699 mmHg 30%
    14:00 +34°C° 0 mm 3 mps 698 mmHg 27%
    15:00 +34°C° 0 mm 3 mps 698 mmHg 26%
    16:00 +34°C° 0 mm 3 mps 697 mmHg 26%
    17:00 +34°C° 0 mm 3 mps 697 mmHg 25%
    18:00 +30°C° 0 mm 3 mps 697 mmHg 29%
    19:00 +28°C° 0 mm 2 mps 697 mmHg 33%
    20:00 +26°C° 0 mm 2 mps 697 mmHg 37%
    21:00 +25°C° 0 mm 2 mps 697 mmHg 39%
    22:00 +25°C° 0 mm 3 mps 697 mmHg 41%
    23:00 +24°C° 0 mm 3 mps 697 mmHg 42%
    Show more